GFSMW_prec_cthk_027.txt.gz
RH
45 52 54 57 62 67 75 82 85 82 80 77 76 69 70 72 72 72 76 75 73 73 71 67 62 60 55 50 48 43 37 31 28 27 26 24 28 28 28 30 33 34 38
59 61 64 70 77 79 78 74 75 76 73 68 67 69 69 70 74 75 73 73 72 67 63 61 58 54 49 42 36 32 30 29 29 29 25 24 21 22 22 21 23 24 26
58 58 67 70 70 68 66 62 58 56 56 59 64 67 69 71 71 68 66 63 61 59 56 54 49 43 38 34 30 29 29 28 25 26 30 30 28 26 21 19 21 22 23
65 69 71 66 65 60 57 55 55 56 58 63 63 63 63 64 65 66 64 63 64 63 56 49 41 35 31 28 26 25 25 26 27 29 30 33 35 39 34 32 25 23 22
69 65 65 64 64 60 56 55 57 57 55 58 61 62 62 63 62 61 60 58 55 50 43 37 30 27 24 22 21 21 23 24 27 29 30 33 34 38 43 38 38 36 29
71 67 66 68 64 63 64 60 62 61 62 62 61 60 55 53 55 56 56 51 47 41 33 27 27 28 26 24 22 23 23 23 25 27 30 34 42 44 48 49 41 47 41
67 71 73 78 74 72 68 68 67 66 63 57 55 54 54 55 55 53 50 46 37 32 34 37 37 38 32 28 27 30 33 34 34 33 36 38 45 56 57 63 58 59 55
74 79 73 70 65 67 69 67 68 64 59 57 56 54 54 51 50 47 41 34 30 30 30 36 44 48 46 43 39 44 44 44 44 40 44 42 47 58 69 74 76 71 74
62 59 59 62 66 70 70 69 66 59 59 57 55 52 48 47 44 37 33 32 34 36 40 42 49 51 59 64 60 60 58 57 49 48 44 39 40 48 55 60 65 72 70
55 60 66 72 71 69 74 70 65 64 62 56 51 48 45 39 34 34 36 41 43 45 49 55 57 64 69 68 73 72 72 66 57 53 44 45 47 49 49 52 53 53 51
62 68 72 76 76 78 75 69 64 62 56 52 48 42 34 34 36 40 43 46 49 57 60 53 59 76 80 89 78 79 74 68 58 51 45 47 46 44 43 42 41 41 41
65 71 76 79 79 78 72 67 65 58 55 50 41 37 35 36 38 39 42 50 52 51 49 50 54 75 81 84 87 84 77 72 60 57 51 48 47 44 42 42 42 43 44
65 70 74 76 73 71 72 66 62 56 47 40 41 37 36 38 41 41 37 31 30 30 33 42 56 64 75 87 88 79 78 66 58 57 53 48 43 41 43 46 47 51 53
68 71 69 70 72 75 66 59 53 47 45 43 39 37 41 40 36 33 30 27 27 32 40 49 54 66 81 90 88 83 77 55 58 54 48 44 45 55 63 65 67 72 74
67 68 70 75 70 65 60 53 49 46 44 40 37 39 37 32 32 32 31 25 30 39 44 55 69 75 82 84 89 73 54 52 48 45 43 52 67 68 68 68 70 72 73
68 72 71 70 69 63 55 50 48 44 40 37 33 31 31 32 33 31 24 27 36 43 52 66 77 71 73 68 55 52 47 46 43 41 53 63 64 69 75 77 83 83 81
72 70 69 67 64 58 52 48 44 41 38 34 33 34 36 36 34 27 27 34 46 57 64 63 60 55 55 51 49 45 45 41 40 47 60 62 71 79 84 90 92 93 94
68 68 68 65 59 54 50 44 43 39 36 35 36 40 40 34 29 30 35 44 54 62 67 58 51 52 50 48 44 42 39 38 40 59 63 74 83 90 94 96 98 96 96
66 68 68 63 57 50 44 44 39 35 34 36 39 40 33 32 34 37 47 54 62 71 62 53 50 50 51 46 43 38 37 38 48 65 74 85 91 95 97 98 99 98 95
70 70 66 61 50 47 48 39 36 36 37 38 36 35 36 37 38 41 52 62 67 63 54 49 49 49 47 46 41 37 38 39 51 69 83 91 95 98 98 98 98 98 97
73 69 63 51 49 46 39 37 36 35 34 35 38 39 40 39 42 46 54 58 57 54 51 49 49 46 49 46 41 38 40 43 54 70 84 93 96 98 98 99 99 99 98
73 66 55 52 46 39 36 35 34 35 36 38 40 43 43 44 47 50 54 54 53 53 52 48 46 47 50 47 43 40 43 47 52 70 83 94 97 99 99 99 99 98 99
70 59 52 45 40 37 36 36 36 37 37 39 43 46 50 52 52 53 52 52 52 51 47 45 46 49 51 49 44 41 44 47 51 66 80 91 96 97 98 99 99 98 99
61 50 45 40 39 37 37 37 36 34 36 40 45 49 53 58 55 54 50 49 55 51 45 45 47 52 53 50 44 43 45 47 48 56 75 87 95 96 98 99 98 98 99
51 44 41 41 39 38 37 36 34 35 36 40 48 53 58 63 61 59 53 51 55 53 48 48 49 54 54 50 47 46 44 47 48 45 58 80 90 83 84 88 84 88 98
44 44 43 42 40 39 37 35 32 34 37 41 50 56 61 67 68 61 55 53 55 55 51 50 52 57 55 51 49 47 45 48 50 44 43 59 79 84 81 79 82 76 79

GFSMW_prec_cthk_030.txt.gz
RH
47 53 58 59 62 71 78 86 90 91 91 84 79 73 69 68 68 69 69 68 66 64 61 56 53 51 47 41 37 33 30 27 24 21 19 18 19 19 15 19 19 16 16
55 58 60 64 74 82 83 89 84 73 70 65 61 61 62 61 63 63 62 62 63 60 57 55 50 45 40 37 34 30 26 22 19 19 18 18 17 17 17 15 17 17 18
57 61 64 71 79 78 72 67 65 62 60 57 55 56 57 58 60 60 60 59 57 54 51 47 43 41 37 29 23 20 18 17 16 17 20 25 25 27 25 19 19 19 19
59 63 70 70 65 61 58 59 59 60 59 58 60 61 60 63 63 61 60 58 54 52 48 44 38 31 27 26 24 22 21 22 24 23 25 28 31 33 31 32 34 29 22
68 64 67 65 63 63 64 67 67 69 67 69 69 64 63 63 61 59 59 55 50 46 38 29 26 25 27 29 28 27 27 26 27 28 29 28 30 33 38 34 37 42 39
67 68 64 64 68 71 80 81 77 73 73 72 68 64 63 59 57 55 50 48 44 36 26 25 25 26 28 32 34 33 33 34 33 36 39 39 38 38 44 46 46 46 38
61 63 68 71 78 77 75 74 76 76 75 71 63 62 60 56 52 49 46 39 32 29 29 29 31 35 40 38 35 44 44 45 47 49 50 54 48 44 46 50 48 51 41
63 68 70 70 65 66 71 74 75 77 74 66 62 60 53 49 47 41 36 35 33 32 33 36 41 45 44 45 49 53 61 59 59 59 61 56 54 53 51 49 47 45 43
63 63 60 60 64 68 72 75 77 74 71 65 59 54 53 50 44 40 37 37 37 39 45 45 48 51 58 68 63 69 70 73 70 68 68 59 58 54 55 56 55 52 45
56 56 59 60 63 68 72 74 72 69 64 63 59 57 52 45 42 43 44 39 40 45 49 50 46 44 46 55 64 69 73 79 76 69 66 66 58 50 49 53 53 51 50
54 57 60 63 66 68 73 73 71 69 72 64 57 49 44 44 46 44 40 40 40 35 28 29 35 38 46 54 60 60 67 76 77 77 72 60 49 48 50 51 46 44 46
58 62 65 67 70 74 73 69 77 79 65 58 51 47 48 47 44 40 37 36 30 28 26 31 41 45 49 52 56 67 81 80 81 83 59 48 48 45 44 41 43 51 59
59 63 66 69 72 70 71 80 71 64 60 55 53 51 46 41 36 33 31 30 28 25 26 37 45 43 55 60 70 78 82 77 70 52 49 45 42 40 44 58 64 65 64
59 63 67 68 65 70 75 66 64 62 59 55 51 46 41 34 32 31 31 30 27 26 32 38 39 48 57 63 65 65 59 51 49 47 43 41 41 48 60 64 71 75 78
58 62 63 64 70 71 68 64 63 60 55 52 48 41 35 34 34 34 31 28 29 32 38 41 48 59 57 55 49 48 47 45 43 40 37 38 45 61 67 76 81 84 85
57 60 64 74 73 69 69 67 62 56 52 46 40 36 36 37 36 32 31 33 34 37 44 50 54 61 49 43 47 45 45 43 38 34 35 37 56 63 76 84 92 96 97
58 62 68 68 66 69 69 63 57 52 47 42 37 39 40 37 33 34 36 37 36 42 50 56 61 60 45 46 46 44 43 38 35 36 37 46 62 74 83 88 94 97 99
60 64 65 68 68 70 65 60 54 49 41 37 41 40 37 34 36 38 37 39 43 50 59 63 60 49 45 46 43 43 40 36 36 38 40 56 70 83 89 95 97 98 98
62 67 69 69 71 70 63 55 49 41 39 41 38 36 36 36 37 37 37 42 47 55 60 59 54 51 48 45 43 43 40 37 37 40 45 62 77 88 95 97 98 97 98
67 69 71 72 76 67 57 49 41 40 40 38 36 37 38 38 36 37 40 45 50 53 55 54 53 52 47 45 43 46 41 37 38 42 47 63 79 92 96 99 98 98 99
69 73 75 78 72 61 51 43 40 41 40 38 37 37 38 37 39 41 46 49 53 51 53 55 55 49 45 44 46 49 43 39 40 44 47 59 80 91 97 99 99 99 98
76 79 81 75 63 51 44 43 43 41 38 37 36 37 37 40 44 47 52 56 57 54 53 57 54 47 47 46 51 49 43 41 42 44 47 54 76 88 94 97 99 98 99
81 82 77 62 51 45 45 45 42 39 38 36 33 33 39 44 48 52 55 59 57 54 54 54 54 51 50 49 54 50 42 41 43 43 42 46 68 81 86 94 94 95 98
84 78 62 51 47 49 47 43 41 39 37 33 32 33 40 46 52 56 59 62 58 56 57 55 56 53 51 53 56 51 42 40 44 44 41 39 57 72 73 80 86 82 93
79 64 51 50 51 48 45 43 40 37 30 31 33 37 46 51 57 63 66 68 62 60 59 59 58 54 52 57 57 51 43 40 42 45 43 40 41 56 73 73 79 79 75
65 53 55 53 51 47 44 41 36 30 29 31 35 45 51 57 63 69 70 70 64 61 62 61 61 56 55 60 58 50 43 41 40 46 45 45 41 42 57 72 73 72 74

GFSMW_prec_cthk_033.txt.gz
RH
47 52 55 56 58 62 70 80 85 94 93 84 69 67 71 66 62 59 59 58 58 59 57 54 49 46 43 41 37 33 27 20 17 15 17 17 15 14 13 14 12 11 11
51 54 57 59 64 72 79 93 87 71 62 62 60 58 59 60 62 59 56 56 56 54 52 48 46 44 40 33 26 22 21 20 18 17 21 21 20 21 17 15 19 17 15
54 59 60 59 65 71 70 67 60 55 56 60 65 68 70 67 64 62 61 61 56 53 50 46 40 32 25 22 21 21 22 22 21 21 26 30 29 32 30 26 27 24 23
53 58 61 66 64 67 63 58 55 60 68 74 76 73 70 68 68 69 63 60 55 51 47 38 31 26 25 24 26 26 26 26 30 28 31 34 39 43 40 45 48 40 32
59 60 65 66 66 63 62 67 74 73 75 76 76 69 67 68 66 62 58 55 51 46 39 32 29 28 28 30 32 32 34 36 37 40 40 39 47 49 50 42 42 39 40
59 57 61 63 63 64 68 74 74 74 69 71 72 72 71 67 62 58 54 48 41 37 35 35 34 33 35 37 37 37 44 48 41 41 45 47 51 50 52 61 55 44 39
54 57 59 62 67 69 68 64 65 69 73 74 75 72 66 63 59 53 46 44 43 41 40 39 39 41 41 42 42 38 53 55 46 47 55 53 57 57 56 67 62 51 40
52 55 58 61 63 61 60 62 65 70 74 75 71 65 64 60 55 50 50 48 46 44 41 40 41 41 40 37 46 44 49 51 53 51 55 59 68 59 57 61 63 46 38
52 57 57 57 56 56 59 62 64 67 71 70 66 69 66 59 55 53 49 46 43 38 36 33 27 26 32 34 44 41 50 52 56 51 59 61 59 63 65 55 51 51 43
52 52 54 54 57 60 62 65 66 69 67 69 75 69 63 58 56 51 46 42 36 33 30 26 24 27 34 44 52 46 49 55 56 62 65 66 67 65 50 49 51 51 46
48 49 52 57 60 64 67 68 70 75 71 75 68 62 61 57 51 48 41 33 30 30 29 26 27 32 41 47 53 47 52 57 64 67 70 63 54 48 49 49 46 42 43
46 49 55 61 65 69 71 76 70 73 78 67 64 62 58 53 48 39 33 34 35 31 28 28 30 37 43 46 50 53 56 60 62 63 56 49 47 46 44 45 45 56 62
49 55 61 65 67 72 73 69 74 75 68 63 62 58 54 47 38 38 38 37 32 30 30 32 35 39 43 46 55 58 55 55 52 49 47 44 44 41 42 46 58 65 72
51 58 62 65 69 69 70 73 73 65 62 62 58 55 46 41 41 42 40 33 32 31 31 36 40 43 50 55 61 52 42 44 46 46 43 38 38 41 42 57 67 74 80
51 58 62 65 65 66 72 69 63 63 62 61 56 46 44 44 44 42 34 34 33 33 34 38 42 47 53 58 59 42 42 43 43 42 36 34 35 38 47 63 75 83 86
50 58 62 63 63 68 59 63 66 64 62 58 49 46 46 46 43 36 34 33 35 35 36 39 46 53 58 60 45 43 43 41 40 38 35 34 37 45 57 69 80 86 91
51 57 60 64 62 60 66 69 69 67 61 52 47 47 47 43 37 34 33 33 34 37 40 45 52 55 52 46 47 43 41 40 40 38 35 37 43 48 63 76 87 94 98
52 57 62 64 66 65 70 72 72 63 53 48 47 46 43 38 36 35 34 33 34 37 42 48 53 54 51 50 48 43 41 40 42 38 37 41 45 51 68 80 90 97 99
54 60 62 65 62 69 74 76 65 55 48 46 46 43 40 38 36 34 35 34 35 41 45 48 49 51 52 51 45 42 40 43 43 39 42 45 48 53 70 82 90 97 99
55 59 62 65 72 76 78 67 56 48 46 47 44 41 37 36 35 36 35 36 40 46 52 54 52 51 54 51 45 43 43 46 44 42 43 46 48 55 72 83 91 97 99
60 64 69 77 77 79 70 56 49 49 48 45 41 37 35 34 35 34 36 40 46 50 54 55 53 52 50 50 47 45 47 51 45 42 42 41 43 56 70 84 91 97 97
69 72 83 81 81 70 58 51 52 50 47 42 37 35 32 33 32 33 41 45 50 55 57 55 54 54 50 50 48 48 53 46 40 40 40 38 40 52 56 70 82 82 86
77 87 85 84 71 57 54 56 51 48 43 38 35 31 32 32 33 39 46 50 54 58 59 59 57 55 53 52 49 52 54 45 38 40 41 39 38 43 52 65 73 82 77
84 88 85 72 58 61 60 54 49 44 39 35 32 34 33 32 36 44 51 57 62 65 62 60 60 60 58 55 52 57 54 44 38 37 41 41 41 40 43 54 68 73 76
94 85 72 61 65 62 55 50 44 39 35 33 34 36 35 36 42 49 57 61 66 67 63 60 60 61 61 57 55 60 55 45 40 36 40 43 45 45 45 46 59 69 72
84 69 67 68 63 55 50 44 39 37 35 36 37 36 37 41 48 54 62 67 69 66 61 60 58 60 61 60 59 62 56 48 43 37 37 42 46 47 49 49 51 63 71

GFSMW_prec_cthk_036.txt.gz
RH
45 48 50 53 60 63 67 72 80 84 94 80 72 69 65 65 65 60 61 61 59 59 58 55 52 49 48 40 33 28 28 27 29 24 23 23 30 32 31 26 24 25 26
46 47 53 55 60 66 74 81 83 76 70 61 59 65 66 65 64 64 67 67 67 66 63 60 58 51 43 37 33 30 27 28 30 32 26 27 26 30 43 31 30 30 31
48 52 57 61 65 72 72 70 68 64 58 63 70 70 70 70 69 74 73 72 68 65 60 54 47 39 36 34 32 33 32 31 30 36 35 34 32 35 36 43 43 36 36
50 53 55 62 67 70 67 66 67 67 66 66 70 71 75 72 70 74 75 69 65 60 52 43 37 36 35 34 37 36 33 37 38 42 43 46 46 46 46 50 52 50 41
50 55 62 61 63 67 69 69 64 65 65 66 68 69 71 72 74 72 69 68 63 51 44 43 41 39 40 42 41 39 41 45 43 48 54 52 49 54 59 59 51 50 54
55 60 59 57 58 58 61 64 64 65 64 64 66 70 71 72 70 69 69 63 59 54 53 51 44 42 43 45 48 48 46 53 57 58 56 55 55 55 62 63 61 55 50
55 56 53 53 55 58 59 61 60 62 65 66 67 68 67 64 68 70 62 56 57 57 55 50 46 45 44 41 40 55 55 56 58 59 65 66 59 57 62 69 63 56 51
51 51 53 55 56 57 60 59 61 62 63 64 65 66 62 68 67 58 56 56 56 53 47 42 37 39 39 40 42 53 57 61 50 62 61 62 58 64 66 68 68 57 42
48 51 54 58 58 58 59 59 62 64 62 62 70 69 65 64 58 54 54 55 49 45 41 40 39 38 39 41 44 53 56 55 51 48 58 62 64 69 69 63 58 55 48
45 50 56 57 55 55 58 62 64 63 65 72 71 66 68 61 56 54 54 50 43 38 37 35 34 35 38 39 44 47 51 59 48 54 59 63 66 67 61 56 58 58 55
46 50 56 53 54 59 64 66 65 66 68 65 67 70 63 57 53 53 50 43 39 38 38 37 36 36 39 41 40 42 54 55 53 56 56 58 61 55 54 56 56 55 55
44 50 52 52 56 61 64 65 65 67 72 71 70 62 57 53 53 51 45 42 42 41 40 39 39 40 40 42 44 44 52 59 62 52 52 53 54 55 53 53 55 54 52
43 46 49 52 57 62 66 65 69 77 70 68 62 59 57 54 50 48 47 47 44 42 40 37 36 36 37 43 46 53 60 63 49 45 47 49 50 48 47 47 50 51 59
42 47 51 54 57 62 63 65 77 70 65 60 59 59 55 50 51 49 48 45 42 40 38 36 35 36 40 46 50 56 61 53 46 44 42 43 43 43 40 42 48 56 69
40 46 51 52 57 60 62 72 67 64 60 60 61 57 54 52 51 49 46 43 37 38 36 35 36 39 42 44 49 54 46 48 43 41 41 41 42 38 38 44 52 63 75
42 45 48 52 56 59 63 64 64 62 62 63 59 56 55 51 50 46 42 40 38 41 40 43 43 43 45 44 44 44 45 47 43 42 41 44 44 45 42 47 55 69 81
38 42 46 52 59 61 62 64 65 67 66 63 57 56 51 50 48 44 40 39 37 40 39 41 44 46 50 47 46 46 45 46 43 42 44 47 47 46 49 52 60 77 87
39 44 50 57 60 60 66 68 69 70 66 58 58 53 54 50 47 43 40 36 35 38 41 41 45 49 50 49 48 47 47 47 45 45 49 47 46 48 48 54 66 81 90
44 51 56 58 60 63 68 66 77 71 60 58 60 57 53 49 45 42 38 35 36 42 43 46 52 54 54 48 48 45 48 48 47 50 49 42 43 45 49 56 68 82 90
52 55 58 60 60 69 77 81 75 64 61 62 58 55 51 47 42 40 37 36 40 43 45 52 54 55 55 52 49 46 49 48 50 51 44 42 42 37 51 53 60 81 85
55 58 61 66 74 81 85 78 69 64 65 57 55 52 47 42 41 39 38 42 42 45 50 51 55 55 56 55 49 48 48 49 54 46 41 42 40 36 46 51 58 71 78
60 70 75 71 84 88 81 70 69 70 57 54 53 47 44 44 40 39 44 44 44 48 53 55 57 58 57 56 52 53 49 49 52 44 40 40 37 38 39 48 54 61 76
71 79 80 83 86 82 67 69 71 59 55 49 45 47 46 42 39 45 45 45 47 53 59 64 66 63 61 60 57 56 51 53 49 41 33 35 37 38 42 46 48 60 75
83 89 93 90 82 70 71 67 62 55 49 46 46 46 45 40 44 46 43 47 52 58 63 66 64 63 60 63 60 60 56 59 52 44 37 35 38 41 45 51 54 58 67
93 93 91 78 68 77 71 63 57 51 48 46 45 44 43 43 47 45 47 52 56 62 67 67 62 60 61 63 60 62 60 62 55 45 41 42 44 46 48 52 55 56 59
95 89 78 81 78 69 64 60 52 49 46 42 42 45 43 46 44 46 50 54 57 63 66 65 61 62 63 63 62 62 60 60 57 50 48 45 45 45 46 49 53 56 57

GFSMW_prec_cthk_042.txt.gz
RH
44 47 47 50 54 55 58 62 63 64 65 73 75 66 62 63 60 60 55 51 50 53 55 56 56 55 56 52 47 45 45 42 40 40 38 36 35 36 33 36 37 39 40
43 44 46 50 56 51 57 61 62 67 74 75 68 61 60 58 53 49 52 55 56 57 59 60 62 60 56 47 45 44 41 43 44 41 39 39 37 38 36 36 37 38 40
44 45 47 50 55 57 63 60 65 71 66 64 62 58 53 51 52 55 58 60 62 62 62 62 60 57 49 47 44 43 45 46 44 40 46 45 43 38 35 35 32 32 34
48 46 50 53 59 61 63 64 70 63 64 59 56 56 55 56 57 60 62 62 65 63 65 61 56 53 50 45 41 43 45 45 46 42 45 46 49 48 44 43 39 39 38
48 50 50 53 59 62 62 65 64 62 61 55 57 56 60 61 64 69 69 73 75 70 62 58 57 55 50 47 44 48 49 46 47 47 44 51 58 56 59 51 50 48 45
48 54 56 56 58 59 59 60 60 65 61 58 58 59 60 63 66 68 70 74 72 69 64 61 57 51 47 40 43 42 40 37 40 44 48 57 63 66 65 63 54 50 40
43 48 55 55 52 54 56 62 62 61 59 58 58 58 61 66 66 67 66 72 66 64 58 54 48 43 40 43 43 40 39 40 44 50 57 67 68 67 66 62 56 55 38
46 47 49 50 52 57 56 57 59 59 57 56 57 57 62 64 65 69 69 73 62 51 50 46 43 42 44 42 39 37 38 40 47 54 56 65 67 67 71 63 70 57 40
44 46 48 48 51 52 52 52 54 54 52 54 57 58 62 62 65 66 74 74 61 52 43 43 42 46 46 43 42 43 43 46 48 46 43 50 58 64 64 64 62 63 45
40 42 41 42 44 47 48 50 56 54 53 54 58 62 63 65 67 71 72 66 60 44 42 46 48 49 47 49 45 42 42 41 39 40 45 52 56 59 60 60 63 62 62
37 37 37 40 44 47 50 52 57 58 56 57 61 63 66 69 69 69 72 69 52 44 48 51 52 52 50 47 45 42 38 35 38 42 46 50 57 64 68 64 55 51 51
36 37 38 41 44 48 50 54 60 61 59 60 63 66 68 75 69 73 72 59 49 51 53 54 53 52 54 48 39 36 37 33 37 45 46 50 58 56 49 45 42 41 44
38 40 43 43 45 48 52 56 58 59 60 63 67 69 71 76 66 77 63 53 56 59 58 55 54 61 54 46 41 38 42 44 46 46 46 46 43 41 42 41 42 40 42
37 42 48 52 50 51 54 58 58 60 60 67 72 70 71 78 68 68 61 61 60 61 59 59 60 56 50 44 44 50 47 47 45 38 40 40 41 43 44 42 41 43 42
38 42 51 54 55 53 57 56 57 57 65 71 70 73 75 70 76 67 59 63 67 62 62 62 63 57 49 49 47 48 45 43 39 34 41 43 43 42 43 46 47 44 40
37 44 43 46 52 55 57 57 57 59 68 70 70 74 77 78 71 61 69 74 68 64 67 64 61 52 50 45 45 47 48 45 39 38 43 43 43 44 47 50 46 42 41
33 43 44 46 51 57 57 58 62 63 62 65 72 78 83 69 66 75 76 70 69 66 63 57 56 49 49 46 46 49 51 48 41 44 47 46 47 47 50 43 38 34 40
34 39 44 45 51 59 60 62 61 62 65 73 79 81 83 75 77 76 74 71 71 66 59 60 56 55 53 48 50 54 55 53 45 49 49 48 50 51 44 36 33 31 40
36 38 43 48 54 59 58 60 64 70 73 76 88 84 80 82 82 71 68 70 65 66 63 55 54 52 52 49 53 58 61 53 47 49 49 51 53 49 41 35 31 31 36
39 44 48 52 57 59 64 68 71 73 84 86 88 89 85 75 70 74 67 65 64 62 59 55 51 49 44 48 56 65 58 49 50 51 51 48 52 47 39 33 31 31 36
49 51 56 63 67 66 65 70 78 87 90 89 91 84 82 80 72 70 69 62 58 57 56 50 43 45 45 50 58 66 57 51 51 53 50 51 53 46 36 33 33 33 37
58 62 62 63 66 73 80 84 90 93 92 94 90 83 79 75 74 70 63 60 57 52 52 48 47 47 49 56 57 61 57 55 54 55 51 49 52 44 37 35 36 39 41
60 62 65 75 82 86 90 95 95 93 94 89 82 74 72 75 68 61 57 56 54 49 47 46 45 48 54 61 62 64 65 61 59 58 55 51 54 49 42 40 40 40 40
67 73 79 85 90 93 93 93 93 93 89 82 74 71 68 60 57 56 57 60 56 52 49 45 47 54 62 66 65 63 65 70 65 63 62 57 56 56 48 46 46 43 42
79 85 90 93 90 89 90 90 87 81 74 65 62 60 52 49 48 47 48 45 46 49 49 51 55 61 64 68 70 68 69 71 71 70 68 62 58 62 54 50 51 48 44
91 91 91 90 87 85 79 72 67 62 57 52 46 42 40 39 40 39 37 43 45 46 49 54 64 68 72 73 70 70 69 74 74 71 69 67 62 66 62 54 56 56 51